Reflectivity
-20 -20 -14 -20 -20 -20 -20 -20 -20 -20 -20 -1 -14 5 -20 -20 -20 -20 -20 -20 -20 -20 6 10 -20 -18 22 14 -6 -20 -20 -20 -20 -20 -20 -20 -20 -20 -20 -20 -20 -20 -20
-20 -20 -20 -20 -20 -20 -20 -20 -20 -20 -20 -20 -20 -9 -20 -20 -20 -20 -20 -20 -20 -20 -20 -10 8 21 14 15 -13 -20 -20 -20 -20 -20 -20 -20 -20 -20 -20 -20 -20 -20 -20
-20 -20 -20 -20 -20 -20 -20 -20 -20 -20 -20 -20 14 15 -16 -20 -20 -20 -20 -20 -20 -20 -20 -20 14 16 9 -0 -20 -20 -20 -20 -20 -20 -20 -20 -20 -20 -20 -20 -20 -20 -20
-20 -20 -20 -20 -20 -20 -20 -20 -20 -20 -20 -20 -17 -20 -20 -20 -20 -20 -20 -20 -20 -20 -20 -20 -20 -20 -20 -20 -20 -20 -20 -20 -20 -20 -20 -20 -20 -20 -20 -20 -20 -19 -3
-20 -20 -20 -20 -20 -20 -20 -20 -20 -20 -20 4 -20 -20 -20 -20 -20 -20 -20 -20 -20 -20 -20 -20 -20 -20 -20 -20 -20 -20 -20 -20 -20 -20 -20 -20 -20 -20 -20 -20 -20 -20 -20
-20 -20 -20 -20 -8 -20 -20 -20 -20 -20 -20 -20 -20 -20 -20 -20 -20 -20 -20 -20 -20 -20 -20 -20 -20 -20 -20 -20 -20 -20 -20 -20 -20 -0 -12 -2 -20 -20 -20 -0 -20 -20 -20
-20 -20 -20 -20 2 -20 -20 -20 -20 -20 3 -20 -20 -20 -20 -20 -20 -20 -20 -20 -20 -20 -20 -20 -20 -20 -20 -20 -20 -20 -20 -20 -20 -20 -5 -11 11 -7 5 11 -11 10 16
-20 -20 -20 -20 -20 -20 -20 -20 -20 -20 -20 -20 -20 -20 -20 -20 -20 -11 -20 -20 -20 -20 -20 -20 -20 -20 -20 -20 -20 -20 -20 -20 -20 -20 -20 -17 11 -20 -20 3 -20 -19 -20
-20 -20 -20 -20 -20 -20 -20 -20 -20 -20 -20 -20 -20 -20 -20 -20 -20 -20 -20 -20 -20 -20 -20 -20 -20 -20 -20 -20 -20 -20 -20 -20 -20 -20 -20 -20 -20 -20 -20 -20 3 5 -3
-20 -20 -20 -20 -20 -20 -20 -20 -20 -20 -20 -20 -20 -20 -20 -20 -20 -20 -20 -20 -20 -20 -20 -20 -20 -20 -20 -20 -20 -20 -20 -20 -20 -20 -20 -20 -20 -20 -20 -20 -20 -20 -20
-20 -20 -20 -20 -20 -20 -20 -20 -20 -20 -20 -20 -20 -20 -20 -20 -20 -20 -20 -20 -20 -20 -20 -20 -20 -20 -20 -20 -20 -20 -20 -20 -20 -20 -20 -20 -20 -20 -13 -20 -20 -7 -12
-20 -20 -20 -20 -20 4 -20 -20 -20 -20 -20 -20 -20 -20 -20 -20 -20 -20 -20 -20 -20 -20 -20 -20 -20 -20 -20 -20 -20 -20 -20 -20 -20 -20 -20 -20 -20 -20 -20 -20 -20 -20 -20
-20 -20 -20 -19 -20 -20 -8 -20 -20 -20 -20 -20 -20 -20 -20 -20 -20 -20 -20 -20 -20 -20 -20 -20 -20 -20 -20 -20 -20 -20 -20 -20 -20 -20 -20 -20 -20 -20 -20 -20 -20 -20 -20
-20 -20 -20 -20 -20 -20 -20 -20 -20 -20 -20 -20 -20 -20 -20 -20 -20 -20 -20 -20 -20 -20 -20 -20 -20 -20 -20 -20 -20 -20 -20 -20 -20 -20 -20 -20 -20 -20 -20 -20 -20 -20 -20
-20 -20 -20 -20 -20 -20 -20 -18 -20 -20 -20 -20 -20 -20 -20 -20 -20 -20 -20 -20 -20 -20 -20 -20 -20 -20 -20 -20 -20 -20 -20 -20 -20 -20 -20 -20 -20 -20 -20 -20 -20 -20 -20
-20 -20 -20 -20 -20 -20 -20 -20 -20 -20 -20 -20 -20 -20 -20 -20 -20 -20 -20 -20 -20 -20 -20 -20 -20 -20 -20 -20 -20 -20 -20 -20 -20 -20 -20 -20 -20 -20 -20 -20 -20 -20 -20
-20 -20 -20 -20 -20 -20 -20 -20 -20 -16 -20 -20 -20 -20 -20 -20 -20 -20 -20 -20 -20 -20 -20 -20 -20 -20 -20 -20 -20 -20 -20 -20 -20 -20 -20 -20 -20 -20 -20 -20 -20 -20 -20
-20 -20 -20 -20 -20 -20 -20 -20 -20 -20 -20 -16 -20 -20 -20 -20 -20 -20 -20 -20 -20 -20 -20 -20 -20 -20 -20 -20 -20 -20 -20 -20 -20 -20 -20 -20 -20 -20 -20 -20 -20 -20 -20
-20 -20 -20 -20 -20 -20 -20 -20 -20 -20 -20 -20 -20 -20 -20 -20 -20 -20 -20 -20 -20 -20 -20 -20 -20 -20 -20 -20 -20 -20 -20 -20 -20 -20 -20 -20 -20 -20 -20 -20 -20 -20 -20
-20 -20 -20 -20 -20 -20 -20 -20 -20 -20 -20 -20 -20 -20 -20 -20 -20 -20 -20 -20 -20 -20 -20 -20 -20 -20 -20 -20 -20 -20 -20 -20 -20 -20 -20 -20 -20 -20 -20 -20 -20 -20 -20
-20 -20 -20 -20 -20 -20 -20 -20 -20 -20 -20 -20 -20 -20 -20 -20 -20 -20 -20 -20 -20 -20 -20 -20 -20 -20 -20 -20 -20 -20 -20 -20 -20 -20 -20 -20 -20 -20 -20 -20 -20 -20 -20
-20 -20 -20 -20 -20 -20 -20 -20 -20 -18 -20 -20 -20 -20 -20 -20 -20 -20 -20 -20 -20 -20 -20 -20 -20 -20 -20 -20 -20 -20 -20 -20 -20 -20 -20 -20 -20 -20 -20 -20 -20 -20 -20
-20 -20 -20 -20 -20 -20 -20 -20 -20 -20 4 -20 -20 -20 -16 -7 -7 -20 -20 -20 -20 -20 -20 -20 -20 -20 -20 -20 -20 -20 -20 -20 -20 -20 -20 -20 -20 -20 -20 -20 -20 -20 -20
-20 -20 -20 -20 -20 -20 -20 -20 -20 -20 -11 -20 -20 -20 -20 -1 -20 -20 -20 -20 -20 -20 -20 -20 -20 -20 -20 -20 -20 -20 -20 -20 -20 -20 -20 -20 -20 -20 -20 -20 -20 -20 -20
-20 -20 -20 -20 -20 -20 -20 -20 -20 -17 -20 -20 -20 -20 -20 2 -20 -20 -20 -20 -20 -20 -20 -20 -20 -20 -20 -20 -20 -20 -20 -20 -20 -20 -20 -20 -20 -20 -20 -20 -20 -20 -20
-20 -20 -20 -20 -20 -20 -20 -13 -20 -4 -20 15 -12 -20 -20 4 -6 -20 -20 -20 -20 12 -2 -20 -20 -20 -20 -20 -20 -20 -20 -20 -20 -20 -20 -20 -20 -20 -20 -20 -20 -20 -20
Wind_Speed
11 13 18 18 16 15 13 12 12 11 10 11 11 13 13 12 12 12 12 11 10 11 12 16 12 10 14 15 14 11 10 9 8 7 5 5 6 7 7 6 7 7 6
17 15 18 17 17 15 13 12 11 10 8 9 11 12 12 12 11 12 11 11 10 11 12 14 14 15 15 14 12 9 9 8 7 5 5 2 4 7 7 6 9 5 5
17 16 14 18 16 15 14 12 11 9 9 9 11 13 13 12 11 12 12 11 11 10 12 12 12 12 12 11 9 8 7 7 4 5 7 3 4 6 6 5 7 4 3
17 15 14 18 17 16 14 12 10 9 10 10 15 13 11 11 12 13 12 11 11 12 12 12 12 11 10 9 9 7 6 4 4 7 4 6 6 8 7 5 5 6 4
17 15 15 18 17 17 15 13 11 10 9 12 12 11 11 12 13 12 11 11 12 12 12 11 11 10 9 8 6 5 4 4 7 7 3 4 3 7 6 5 5 7 6
17 16 19 19 18 15 14 13 11 11 9 13 10 11 11 9 9 10 11 10 10 10 10 9 8 8 7 6 5 5 4 6 9 6 2 4 5 6 6 7 4 4 5
16 16 16 19 18 16 14 12 11 11 11 13 11 10 8 7 7 7 11 10 9 8 8 7 7 7 5 4 3 3 3 5 6 5 3 6 5 8 6 6 8 8 7
17 16 14 18 19 17 15 13 12 12 12 11 10 10 9 5 3 6 11 9 8 7 6 6 6 5 4 3 2 3 3 6 6 4 6 6 10 9 9 8 9 9 10
17 16 12 11 14 17 16 14 11 11 11 9 9 9 8 3 5 13 12 9 8 6 6 5 4 3 6 5 4 4 5 7 5 3 9 4 10 9 9 10 11 13 15
8 16 14 12 11 10 8 12 12 10 9 10 9 10 8 8 11 13 11 9 8 7 6 7 6 6 5 5 3 3 6 9 4 7 5 5 11 8 9 11 12 11 12
7 8 15 13 12 11 9 8 11 12 11 10 9 10 7 4 6 8 8 9 8 8 7 6 5 4 4 2 2 2 7 3 5 6 3 12 9 9 11 12 11 12 13
8 7 11 15 13 11 10 10 6 6 4 6 6 6 5 6 5 9 8 10 9 9 8 6 5 4 4 2 2 3 4 6 4 5 3 11 7 7 10 11 11 11 13
9 6 7 11 14 13 9 8 5 5 5 5 9 8 7 5 5 5 4 4 4 6 3 4 2 1 4 3 4 4 3 4 3 4 6 11 10 9 10 11 10 11 11
11 10 9 8 12 12 9 7 8 7 7 6 7 11 5 4 5 5 5 5 5 4 4 2 3 3 3 4 4 4 5 3 2 3 6 12 10 9 10 11 11 11 11
9 11 11 9 8 12 11 8 6 8 8 6 7 6 5 5 5 5 5 5 5 3 1 2 3 4 4 4 4 4 4 4 5 4 3 12 10 9 9 10 10 10 10
8 10 12 10 10 12 10 12 9 6 8 6 6 6 7 5 5 5 5 5 4 3 1 4 4 3 3 3 3 3 3 4 4 5 4 5 10 8 8 8 9 9 10
7 8 11 12 11 9 12 13 9 5 7 5 6 8 6 6 6 7 6 5 3 3 4 4 3 3 4 3 4 2 3 3 3 2 6 4 5 8 6 5 7 9 9
8 9 10 13 14 13 11 8 6 6 6 6 4 7 7 8 8 7 5 5 4 2 4 4 3 2 3 4 3 4 2 1 1 3 4 4 4 3 3 3 5 8 8
9 9 9 12 16 15 10 9 8 8 8 9 6 7 8 10 8 6 5 5 6 3 4 4 3 3 3 3 4 2 3 2 2 3 3 4 4 3 2 1 2 9 6
10 8 10 8 10 13 12 10 9 6 8 9 7 7 12 8 8 7 6 6 5 5 4 3 4 3 3 2 3 3 2 1 2 2 2 2 3 4 2 0 2 4 11
8 8 8 10 10 8 5 10 9 6 8 8 6 11 12 10 8 8 5 6 6 6 5 6 3 4 4 4 2 4 1 2 1 2 2 2 2 4 3 0 1 2 3
9 8 10 9 13 12 8 6 6 5 4 5 7 9 7 10 8 8 7 6 7 5 6 5 4 2 2 4 2 1 3 4 3 3 1 2 1 1 1 2 2 3 2
13 13 9 9 9 13 10 6 6 7 5 4 6 6 6 6 7 7 7 8 7 5 5 4 4 4 3 2 4 3 3 1 3 2 1 2 1 1 1 3 4 2 1
14 12 11 8 10 8 11 10 16 10 10 4 6 7 5 7 7 7 8 9 7 5 6 4 4 3 3 3 1 2 3 3 1 4 3 3 4 2 4 3 4 3 3
7 7 12 11 8 9 14 14 11 10 6 7 9 13 9 5 6 8 10 10 8 6 5 6 5 5 3 3 2 1 1 0 3 3 5 3 5 4 5 5 4 4 5
8 8 6 9 9 9 12 15 15 14 15 12 11 11 8 5 4 7 9 8 9 8 7 5 5 5 4 4 2 2 2 1 0 0 2 3 5 5 3 5 6 5 5
Wind_Direction
130 140 141 139 134 131 127 122 118 114 115 116 119 116 110 101 95 86 76 68 70 67 67 55 59 70 95 88 83 76 68 60 50 37 37 55 69 52 46 32 353 20 36
131 140 140 138 137 135 129 123 117 113 114 122 129 126 117 111 99 85 76 70 74 80 73 72 62 74 75 79 79 72 62 55 37 354 329 279 142 86 49 20 9 0 6
134 136 141 138 136 134 130 125 122 123 127 133 136 122 120 113 106 93 78 73 71 79 81 78 76 74 73 71 67 58 51 44 16 321 313 301 167 80 59 19 360 356 319
134 141 137 139 137 134 132 128 123 123 130 130 123 119 119 119 105 93 86 83 80 82 86 82 78 76 74 72 68 63 61 40 327 314 305 66 67 57 38 15 352 333 314
130 151 138 142 138 137 136 134 126 124 129 137 127 118 114 119 107 102 92 89 87 86 83 82 81 78 72 71 59 44 51 350 321 305 307 95 78 59 33 20 352 335 341
145 133 143 146 141 137 138 138 134 134 139 136 130 121 120 123 121 114 108 100 95 90 83 79 76 72 67 59 46 32 16 333 315 286 167 114 91 60 21 359 344 333 320
107 125 138 140 135 138 141 139 137 141 140 139 134 123 136 125 143 144 126 114 108 97 84 68 66 66 64 59 49 30 350 316 300 306 81 89 75 43 10 350 344 339 332
128 134 141 140 143 144 148 146 144 146 152 151 137 123 116 112 159 144 134 122 113 99 82 69 64 67 62 44 32 6 329 291 308 291 63 70 41 27 16 39 22 11 6
135 133 148 152 148 150 152 151 153 155 151 155 141 128 112 79 162 145 139 131 117 98 91 75 62 88 93 69 48 17 324 311 312 325 75 50 32 20 34 41 35 40 41
137 144 151 151 150 150 155 155 156 158 155 153 142 126 121 105 111 127 133 131 127 115 100 94 91 102 102 103 83 337 314 312 289 74 49 39 29 24 51 51 39 34 47
150 158 154 154 164 163 161 160 159 160 161 160 150 148 154 163 151 143 133 127 126 123 116 110 117 141 154 168 175 320 343 352 21 77 58 39 19 59 69 48 38 55 49
168 178 157 162 171 169 155 147 166 159 165 164 166 168 205 200 150 135 135 141 136 132 135 146 173 186 196 205 235 353 33 359 17 89 56 44 20 69 66 48 47 49 47
174 181 186 165 163 152 151 160 174 165 182 184 181 171 210 147 125 139 142 148 149 160 165 189 178 117 52 35 26 22 42 20 24 68 55 58 54 67 61 50 49 56 41
173 175 171 187 152 156 151 175 178 171 184 188 182 177 179 136 152 168 166 173 173 153 130 216 115 110 64 46 59 20 5 24 47 96 70 68 58 63 63 54 50 46 36
184 170 170 177 160 159 158 176 210 182 182 174 171 175 148 159 177 188 138 111 101 97 168 127 79 65 66 31 36 44 17 11 34 96 86 86 72 66 63 54 49 41 30
208 167 168 181 168 164 171 182 203 187 173 163 155 168 168 170 176 123 107 97 95 107 83 85 76 64 50 51 8 26 40 16 43 97 121 101 99 83 69 54 39 30 18
229 184 171 175 170 183 177 184 196 175 159 155 157 162 173 155 126 110 106 108 144 174 154 86 74 61 32 25 2 349 82 40 19 71 117 129 121 118 105 68 31 10 1
193 204 182 179 176 188 196 187 184 171 153 157 157 158 171 132 117 111 117 136 155 179 106 87 62 61 55 44 2 320 33 95 170 108 96 97 125 121 95 81 34 356 347
226 203 190 175 179 183 192 186 199 180 159 164 168 164 160 128 126 123 131 147 150 142 104 121 68 84 52 15 309 317 56 15 271 117 124 121 131 96 97 230 347 329 317
227 217 189 178 175 179 188 194 195 183 156 160 162 153 136 131 132 126 139 156 145 117 112 100 112 77 76 349 308 327 154 173 94 130 182 154 156 136 138 83 297 339 355
238 238 224 174 180 175 181 191 186 170 153 157 146 138 134 128 126 139 159 141 132 136 146 133 110 98 26 346 31 350 282 155 170 217 196 206 93 173 179 287 62 18 342
228 245 233 207 181 187 189 193 190 133 119 127 124 121 119 131 142 156 148 136 123 115 111 111 123 116 97 30 70 271 0 336 344 229 154 144 36 148 77 57 7 314 314
214 221 240 213 195 189 185 146 95 88 75 82 115 112 119 140 153 147 135 124 120 117 124 119 108 103 134 29 66 136 33 282 322 332 227 95 332 357 294 292 274 258 300
223 212 222 225 208 188 174 148 157 162 160 150 138 118 122 145 145 137 126 124 119 122 120 130 116 112 105 128 51 53 92 139 123 330 336 330 330 332 326 323 300 283 284
252 227 207 212 211 190 184 152 163 148 128 128 127 126 133 142 143 138 129 123 124 126 125 121 116 101 85 122 118 72 17 240 209 176 277 301 339 334 323 313 306 287 279
247 231 221 206 196 176 173 154 156 156 143 146 149 146 141 144 155 130 125 125 125 114 126 130 113 107 105 95 85 101 155 161 288 354 302 308 277 286 318 303 288 281 273